Reflectivity
-20 -20 -20 -20 -20 -20 -20 -20 -20 -20 -20 -20 -20 -20 -20 -20 -20 -20 -20 -20 -20 -20 -20 -20 -20 -20 -20 -19 -20 -20 -20 -20 -20 -20 -16 -20 -20 -20 -19 -4 -20 -20 -20
-20 -20 -20 -20 -20 -20 -20 -20 -20 -20 -20 -20 -20 -20 -20 -20 -20 -20 -20 -20 -20 -20 -20 -20 6 -20 -20 -20 -20 -9 -20 -20 -20 -20 -20 -20 -20 -20 -17 -20 -18 -20 -20
-20 -20 -20 -20 -20 -20 -20 -20 -20 -20 -20 -20 -20 -20 -20 -20 -20 -20 -20 -20 -20 -20 -20 -20 -20 -20 -20 -16 -20 -20 -20 -20 -20 -20 -20 -20 -20 -20 -20 -20 -20 -20 -20
-17 -20 -20 -20 -20 -20 -20 -20 -20 -20 -20 -20 -20 -20 -20 -20 -20 -20 -20 -20 -20 -20 -20 -20 -20 -20 -20 -20 -20 -20 -20 -20 -20 -20 -20 -20 -20 -20 -20 -20 -20 -18 -20
-6 -20 -20 -20 -20 -20 -20 -20 -20 -20 -20 -20 -20 -20 -20 -20 -20 -20 -20 -20 -20 -20 -20 -20 -20 -20 -20 -20 -20 -20 -20 -20 -20 -20 -20 -20 -20 -20 -20 -20 -20 -20 -20
-20 25 23 -20 -20 -20 -20 -20 -20 -20 -20 -20 -20 -20 -20 -20 -20 -20 -20 -20 -20 -20 -20 -20 -20 -20 -20 -20 -20 -20 -20 -20 -20 -20 -20 -20 -20 -20 -20 -20 -20 -20 -20
-20 -20 -20 6 27 23 3 -19 -20 -20 -20 -20 -20 -20 -20 -20 -20 -20 -20 -20 -20 -20 -20 -20 -20 -20 -20 -20 -20 -20 -20 -20 -20 -20 -20 -20 -20 -20 -20 -20 -20 -20 -20
-20 -20 -20 -20 -20 25 -11 -20 -20 -15 -20 -20 -20 -20 -20 -20 -20 -20 -20 -20 -20 -20 -20 -20 -20 -20 -20 -20 -20 -20 -20 -20 -20 -20 -20 -20 -20 -20 -20 -20 -2 -20 -20
-17 -7 20 -20 -20 -3 14 -12 -11 10 -1 -20 -20 -5 -5 -1 -0 -20 -15 18 7 -20 -20 -20 -20 -20 -20 -20 -20 -20 -20 -20 -20 -20 -20 -4 2 -19 -20 -20 -9 -20 -20
-20 -19 25 -20 -20 -20 4 17 -20 -8 -20 -20 2 0 7 16 17 6 5 31 16 -7 -20 -20 -13 -2 10 9 -20 -20 -20 -20 23 24 26 27 24 3 5 -17 -20 -20 -7
13 -20 -20 12 -20 12 -16 -20 -20 -20 17 -7 8 -1 -20 18 30 25 27 26 -5 -20 -20 -20 -20 2 10 10 7 -20 -14 -20 -20 -20 -20 3 3 -20 -20 -20 -20 -9 -10
-16 -16 -8 7 -20 -20 -20 -20 -16 -20 -20 -20 -17 -12 -1 1 8 11 -3 1 -1 -20 -20 -20 -16 11 8 7 7 6 4 -17 -20 -19 -8 4 -20 -20 -20 -20 -20 -20 -18
-20 -17 5 -16 -20 -20 -18 25 24 3 -20 -20 -20 -20 -19 -17 -19 4 11 14 13 -7 -20 -6 9 7 6 2 6 12 -4 -20 -20 -20 -20 -20 -20 -20 -20 -20 -20 -20 -20
-20 -20 -20 -20 -17 -20 -20 -16 -0 -14 36 -20 -20 -20 -20 -20 -20 -20 -17 -17 3 -1 7 -8 1 4 5 -18 -20 -20 -20 -20 -20 -20 -20 -20 -20 -20 -20 -20 -20 -20 -20
-20 -20 -20 -20 -20 -20 -20 -20 -5 13 -19 -20 -20 -20 -20 -15 -17 3 3 -20 -20 -14 -10 -20 -20 -13 7 -20 -20 -20 -20 -20 -20 -20 -20 -20 -20 -20 -20 -20 -20 -20 -20
-20 -20 -20 -20 -20 -20 -20 -19 -1 8 12 2 9 -5 -15 3 10 9 11 12 10 8 -15 -20 -20 -15 -20 -20 -20 -20 -20 -20 -20 -20 -20 -20 -20 -20 -20 -20 -20 -20 -20
-20 -20 -20 -5 -20 -6 -19 -20 -20 5 9 9 11 13 9 5 10 13 11 4 9 10 -20 -20 -20 -20 -20 -20 -20 -20 -20 -20 -20 -20 -20 -20 -20 -20 -20 -20 -20 -20 -20
-2 1 -20 -18 -20 -20 28 -6 23 -20 -20 -20 8 6 10 10 13 15 13 1 -9 -4 -20 -20 -20 -20 -20 -20 -20 -20 -20 -20 -20 -20 -20 -20 -20 -20 -20 -20 -20 -20 -20
-19 -3 -5 -20 -19 15 31 28 32 -20 -20 -19 -20 2 2 8 10 10 8 -20 -20 -20 -20 -20 -20 -20 -20 -20 -20 -20 -20 -20 -20 -20 -20 -20 -20 -20 -20 -20 -20 -20 -20
-20 -20 -20 -20 28 30 30 -0 -20 -20 -20 -8 -20 -20 -20 -5 -18 -20 -20 -20 -20 -20 -20 -20 -20 -20 -20 -20 -20 -20 -20 -17 -20 -20 -20 -20 -20 -20 -20 -20 -20 -20 -20
-20 -20 -20 -13 17 29 28 30 -20 -20 -20 -9 -20 -20 -15 -20 -20 -20 -20 -20 -20 -20 -20 -20 -20 -20 -20 -20 -20 -20 -20 -20 -20 -20 -20 -20 -20 -20 -20 -20 -20 -20 -20
-20 -20 -20 13 24 30 30 3 -18 -20 -20 -20 -20 -11 8 -20 -20 -20 -20 -20 -20 -20 -20 -20 -20 -20 -20 -20 -20 -20 -20 6 -14 4 -18 -20 -20 -20 -20 -20 -20 -20 -20
27 -20 1 24 27 26 19 8 -19 -20 -20 -20 -20 -20 -20 -20 -20 -20 -20 -20 -20 -20 -20 -20 -20 -20 -20 -20 -20 -20 -20 -20 -14 -19 -10 -20 -20 -20 -20 -20 -20 -20 -20
25 7 -12 25 30 29 22 4 -20 -6 -14 -20 -20 -20 -20 -20 -20 -20 -20 -20 -20 -20 -20 -20 -20 -20 -20 -20 -20 -20 -20 -18 -20 8 -19 7 -20 -17 -20 -20 -20 -20 -20
-20 3 27 3 2 -1 29 13 -20 -20 -20 -20 -20 -14 -18 -20 -20 -20 -20 -20 -20 -20 -20 -20 -20 -20 -20 -20 -20 -20 -11 -13 1 -20 -20 -20 -20 -20 -20 -20 -6 3 -18
-20 2 22 32 30 28 6 -20 -20 -20 -20 -20 -20 -20 -20 -20 -20 -20 -20 -20 -20 -20 -20 -20 -20 -20 -20 -20 -20 -20 16 14 -2 -20 -20 -18 12 -19 -20 -20 -20 -10 -20
Wind_Speed
12 11 10 10 10 8 7 6 6 5 5 5 4 5 4 4 4 4 4 4 4 3 3 3 4 3 2 3 2 2 2 2 2 2 1 1 2 4 1 4 5 6 5
12 12 11 10 11 10 9 8 6 6 5 6 5 4 5 5 4 5 6 4 5 5 5 3 5 2 4 3 2 4 3 3 2 3 2 1 4 2 3 5 5 5 5
12 11 11 10 12 13 12 10 9 8 7 6 5 5 6 6 5 6 6 6 6 6 5 4 4 3 4 3 4 4 3 3 3 2 2 1 1 1 1 3 3 5 5
13 14 13 13 13 13 11 10 11 10 9 8 7 7 7 6 7 7 7 6 6 6 6 6 6 6 6 5 5 5 4 4 4 3 2 2 1 1 1 3 3 3 5
12 13 14 12 11 11 10 11 11 10 10 9 8 7 7 6 6 7 7 7 7 7 7 7 7 8 10 8 5 5 5 5 4 4 3 2 2 2 3 1 3 3 4
12 12 9 9 10 10 10 10 9 9 9 8 8 8 8 7 10 13 10 8 7 8 8 8 7 9 9 12 12 11 8 6 6 3 3 4 5 3 3 3 3 2 3
11 9 10 9 10 11 9 9 10 9 8 9 8 6 7 7 10 14 14 8 8 8 8 7 7 7 7 7 9 11 11 12 10 4 6 6 5 5 2 4 5 5 5
12 10 10 11 10 7 8 9 8 7 10 8 8 8 6 4 11 14 14 9 8 9 8 7 7 8 8 8 7 7 8 8 9 7 9 8 7 3 6 3 4 4 4
13 14 13 13 12 10 11 11 9 10 9 9 9 9 6 5 7 14 9 8 8 9 6 7 8 8 8 8 7 9 8 7 5 7 7 5 5 6 6 3 4 3 4
11 13 12 12 13 13 14 12 9 9 10 8 8 8 12 11 8 8 11 6 7 5 4 5 7 8 7 5 7 7 7 7 4 4 3 2 1 4 4 2 2 3 3
6 6 8 12 14 15 13 10 11 9 6 8 8 7 6 8 6 7 12 5 4 3 3 4 5 6 6 6 8 6 6 3 4 4 3 2 3 4 3 4 4 3 2
4 5 9 12 11 9 11 10 9 9 9 9 7 5 4 5 7 8 7 5 5 4 3 4 2 4 4 2 4 6 8 6 4 3 3 3 2 1 2 3 3 3 2
5 6 7 7 9 9 10 9 8 9 9 8 7 6 5 4 3 5 4 6 4 2 2 2 8 7 8 7 6 6 5 3 4 3 3 2 1 1 1 2 3 4 2
5 9 9 7 7 6 6 8 9 9 9 9 8 9 7 6 5 4 4 4 4 3 4 4 4 6 7 6 3 4 2 2 3 4 3 3 2 1 2 1 2 2 2
7 8 10 7 6 6 4 4 7 6 9 11 8 8 9 7 8 9 9 6 6 5 6 4 3 3 3 3 2 3 3 2 3 3 4 3 3 2 2 2 3 4 5
10 9 8 8 8 6 7 5 14 6 3 11 8 7 3 4 11 13 11 10 10 12 3 4 3 4 4 4 3 3 2 3 3 3 3 3 3 3 3 3 3 2 4
10 9 8 9 8 7 9 9 9 4 5 9 7 7 7 9 9 11 12 11 10 8 3 5 5 5 4 4 4 3 4 3 4 3 3 3 3 3 2 3 2 2 3
7 11 8 8 9 9 10 9 8 10 8 5 5 5 8 10 11 12 12 10 3 1 4 6 6 6 5 6 5 5 4 5 4 4 4 4 3 3 3 2 2 2 1
3 4 5 4 3 7 7 7 7 7 7 5 4 4 8 11 9 9 7 4 7 7 7 6 7 6 6 6 6 5 6 6 5 5 4 4 4 3 3 3 2 1 0
5 7 6 4 5 5 4 6 6 6 6 5 5 5 6 6 4 5 5 6 6 7 6 6 6 7 7 7 6 7 6 6 7 6 6 5 5 4 4 4 3 2 2
6 5 9 8 7 6 6 7 6 6 6 5 5 7 12 8 8 8 8 8 8 7 8 7 7 6 6 8 7 7 7 7 6 7 7 7 6 6 5 4 3 3 3
5 6 4 4 6 6 6 4 5 6 6 6 4 5 12 7 6 8 8 8 7 6 6 6 6 7 9 9 10 9 8 7 7 7 8 7 7 7 6 5 5 5 5
4 5 4 5 4 4 4 4 5 5 6 6 6 6 7 9 9 8 9 9 8 7 7 7 7 6 7 8 9 10 10 10 10 8 9 9 9 8 8 8 8 7 7
5 5 4 4 4 3 2 5 6 6 7 6 6 7 8 9 10 11 9 7 7 8 7 8 8 11 9 9 8 9 10 8 7 9 11 8 10 10 9 9 9 10 9
4 4 4 3 4 4 5 5 6 7 7 6 6 8 9 9 9 9 8 7 7 7 9 8 8 11 13 13 12 13 13 13 12 11 9 10 13 13 11 10 10 9 11
5 5 5 3 4 6 7 7 6 5 5 5 7 7 8 9 9 9 7 8 8 8 9 8 10 14 14 13 15 16 12 16 14 13 10 9 9 10 10 12 14 9 10
Wind_Direction
190 196 191 185 186 202 203 199 205 192 207 225 226 222 224 226 197 218 224 231 228 253 252 233 263 284 233 197 244 217 235 200 258 293 277 300 277 242 213 235 242 236 230
194 190 196 190 183 194 209 194 202 209 203 214 208 226 220 230 198 216 226 218 219 227 240 238 259 255 253 248 227 235 251 241 249 278 293 291 227 257 226 223 231 236 232
176 193 196 191 192 202 203 198 190 212 205 210 198 214 218 225 206 217 228 226 218 219 227 233 251 233 249 222 223 231 229 223 211 227 290 303 294 227 282 260 251 247 244
181 186 198 203 203 204 201 202 195 203 209 208 211 210 212 222 212 210 217 224 232 230 223 223 234 219 236 246 237 232 227 222 231 218 240 255 246 296 253 277 287 238 266
192 189 200 202 206 208 201 202 205 197 214 213 211 211 209 210 226 219 216 219 221 232 237 228 235 224 213 219 228 228 221 226 223 223 232 225 237 239 226 209 252 274 265
189 209 197 190 194 202 206 206 207 201 206 203 213 211 211 220 216 214 209 218 222 225 239 245 235 233 232 225 225 225 201 210 223 210 227 237 241 222 202 221 237 236 274
198 188 192 201 196 203 201 194 207 205 185 201 211 209 222 232 224 219 218 221 220 226 226 227 245 254 235 249 236 223 221 220 222 197 230 235 255 228 230 253 236 236 243
197 189 186 194 206 200 204 201 199 200 197 189 175 181 187 220 244 249 231 217 221 227 228 230 227 239 237 238 253 256 234 218 215 209 224 244 231 242 225 248 265 264 275
205 205 195 198 199 199 219 215 203 201 203 193 193 183 177 239 224 231 232 227 229 235 228 229 233 244 244 217 233 250 254 236 195 220 235 253 250 246 249 242 244 247 266
205 215 207 195 207 204 207 215 214 207 206 195 200 182 180 213 225 216 205 211 212 226 243 262 244 254 263 243 230 236 244 246 205 212 214 199 193 109 140 231 277 249 271
234 227 206 195 197 209 207 207 197 186 200 201 203 191 187 180 178 205 209 196 191 206 231 265 278 258 265 256 219 227 226 156 178 187 196 180 130 86 57 18 2 345 295
256 255 212 212 198 192 199 194 202 172 179 184 178 170 153 150 167 192 174 190 171 208 218 232 240 154 130 138 166 148 132 133 150 164 167 150 127 41 21 348 342 324 293
278 256 262 253 210 171 185 191 177 189 178 174 167 172 167 156 166 161 192 206 205 201 232 233 135 138 125 86 85 124 141 150 153 158 167 151 112 51 356 13 22 351 57
249 263 257 231 224 164 182 180 173 184 184 171 173 174 172 179 185 178 184 178 174 180 135 120 128 114 94 110 98 63 73 123 157 164 154 127 92 78 80 35 67 59 88
241 239 248 258 223 173 151 174 183 199 188 167 181 169 169 188 201 180 173 183 183 167 135 132 126 123 136 136 110 103 99 110 123 127 141 134 125 110 78 50 55 56 70
238 238 232 231 231 170 153 113 46 49 95 88 121 154 138 114 153 162 170 162 146 151 142 165 158 170 183 177 164 136 123 133 127 131 124 115 107 101 89 74 78 77 79
239 224 215 208 203 176 175 162 152 97 63 78 110 121 120 152 152 135 129 119 137 144 173 179 181 185 190 183 178 178 166 158 138 137 130 128 122 107 108 95 100 84 74
229 209 203 195 198 178 192 179 159 163 160 155 59 87 88 117 130 131 138 116 123 212 182 184 190 190 191 186 181 184 164 159 163 157 158 155 159 156 149 146 132 118 61
184 164 171 166 175 197 183 172 165 153 139 133 121 81 88 96 107 117 175 190 177 192 206 199 189 187 190 184 184 182 175 183 180 171 176 177 178 175 163 168 162 172 288
183 209 183 155 167 151 171 163 158 136 134 146 162 156 146 121 173 178 199 203 191 189 196 200 189 189 189 191 182 178 186 192 189 188 192 189 186 197 195 192 192 197 232
189 192 217 154 148 167 180 189 157 133 149 163 180 173 164 168 189 195 199 204 194 183 185 194 189 194 188 190 187 187 197 199 205 201 196 193 188 200 213 212 215 231 257
168 168 193 123 139 177 182 146 150 151 152 162 185 174 157 197 201 204 209 206 199 205 197 190 206 203 200 194 190 194 193 201 191 192 210 200 197 205 204 213 219 226 241
175 157 162 160 161 174 158 146 148 161 173 186 183 174 174 207 219 213 211 210 196 198 206 206 205 204 204 204 200 201 200 197 199 194 200 203 198 203 206 214 221 227 232
178 178 166 162 152 146 152 204 191 189 191 186 189 194 193 210 217 217 213 209 204 202 201 202 207 210 205 205 201 207 212 211 190 187 188 202 207 198 208 216 220 225 240
151 157 185 174 167 174 208 204 196 197 195 178 185 196 206 212 220 222 215 205 210 213 216 206 211 211 212 209 211 211 211 195 203 183 184 197 212 209 211 220 223 226 232
170 168 170 179 173 179 186 185 180 178 185 188 211 204 210 212 211 217 214 212 217 214 215 210 213 216 214 218 219 214 199 199 200 195 187 192 210 213 212 222 233 235 242